Weather History for Hulett, WY

Change the Weather History Date:

Sunday, October 6, 2013

  Actual Average (KEFC) Record (KEFC)
Temperature  
Mean Temperature 41 °F -  
Max Temperature 50 °F 68 °F 89 °F (1975)
Min Temperature 32 °F 33 °F 11 °F (1952)
Degree Days  
Heating Degree Days 24    
Moisture  
Dew Point 32 °F    
Average Humidity 72    
Maximum Humidity 93    
Minimum Humidity 54    
Precipitation  
Precipitation 0.00 in - - ()
Sea Level Pressure  
Sea Level Pressure 30.16 in    
Wind  
Wind Speed 10 mph (SSW)    
Max Wind Speed 14 mph    
Max Gust Speed 21 mph    
Visibility 10 miles    
Events      
Averages and records for this station are not official NWS values.
T = Trace of Precipitation, MM = Missing Value Source: NWS Daily Summary

Daily Weather History Graph

Daily Weather History Graph

Search for Another Location

Airport:

Trip Planner

Search our weather history database for the weather conditions in past years. The results will help you decide how hot, cold, wet, or windy it might be!

Date:

Astronomy

Oct. 06, 2013 Rise Set
Actual Time 7:02 AM MDT 6:29 PM MDT
Civil Twilight 6:33 AM MDT 6:58 PM MDT
Nautical Twilight 5:59 AM MDT 7:31 PM MDT
Astronomical Twilight 5:25 AM MDT 8:05 PM MDT
Moon 8:55 AM MDT (10/6) 7:23 PM MDT (10/6)
Length of Visible Light 12h 24m
Length of Day
11h 26m
Waxing Crescent, 4% of the Moon is Illuminated
Oct 6
Waxing Crescent
Oct 11
First Quarter
Oct 18
Full
Oct 26
Last Quarter
Nov 3
New

Hourly Weather History & Observations

Time (MDT) Temp. Windchill Dew Point Humidity Pressure Visibility Wind Dir Wind Speed Gust Speed Precip Events Conditions
12:15 AM 33.8 °F 27.0 °F 30.2 °F 87% 30.16 in 10.0 mi SSW 8.1 mph - N/A   Clear
12:35 AM 33.8 °F 27.0 °F 30.2 °F 87% 30.15 in 10.0 mi SSW 8.1 mph - N/A   Clear
12:55 AM 32.0 °F 24.2 °F 28.4 °F 87% 30.15 in 10.0 mi South 9.2 mph - N/A   Clear
1:15 AM 33.8 °F 27.0 °F 28.4 °F 81% 30.16 in 10.0 mi South 8.1 mph - N/A   Clear
1:35 AM 32.0 °F 24.2 °F 28.4 °F 87% 30.17 in 10.0 mi South 9.2 mph - N/A   Clear
1:55 AM 33.8 °F 27.0 °F 30.2 °F 87% 30.17 in 10.0 mi South 8.1 mph - N/A   Clear
2:15 AM 33.8 °F 27.0 °F 28.4 °F 81% 30.17 in 10.0 mi SSW 8.1 mph - N/A   Clear
2:35 AM 32.0 °F 24.2 °F 28.4 °F 87% 30.17 in 10.0 mi South 9.2 mph - N/A   Clear
2:55 AM 32.0 °F 24.2 °F 28.4 °F 87% 30.16 in 10.0 mi SSW 9.2 mph - N/A   Clear
3:15 AM 32.0 °F 23.6 °F 28.4 °F 87% 30.16 in 10.0 mi SSW 10.4 mph - N/A   Clear
3:35 AM 32.0 °F 23.6 °F 30.2 °F 93% 30.16 in 10.0 mi SSW 10.4 mph - N/A   Clear
3:55 AM 33.8 °F 25.8 °F 28.4 °F 81% 30.15 in 10.0 mi SSW 10.4 mph - N/A   Clear
4:15 AM 33.8 °F 25.8 °F 30.2 °F 87% 30.16 in 10.0 mi SW 10.4 mph - N/A   Clear
4:35 AM 35.6 °F 28.0 °F 28.4 °F 75% 30.17 in 10.0 mi SW 10.4 mph - N/A   Clear
4:55 AM 33.8 °F 26.4 °F 28.4 °F 81% 30.17 in 10.0 mi SSW 9.2 mph - N/A   Clear
5:15 AM 33.8 °F 26.4 °F 30.2 °F 87% 30.16 in 10.0 mi SSW 9.2 mph - N/A   Clear
5:35 AM 35.6 °F 28.0 °F 30.2 °F 81% 30.16 in 10.0 mi SSW 10.4 mph - N/A   Clear
5:55 AM 35.6 °F 28.0 °F 30.2 °F 81% 30.16 in 10.0 mi SSW 10.4 mph - N/A   Clear
6:15 AM 35.6 °F 28.6 °F 30.2 °F 81% 30.17 in 10.0 mi SSW 9.2 mph - N/A   Clear
6:35 AM 35.6 °F 28.0 °F 30.2 °F 81% 30.17 in 10.0 mi SW 10.4 mph - N/A   Clear
6:55 AM 35.6 °F 28.6 °F 30.2 °F 81% 30.17 in 10.0 mi SW 9.2 mph - N/A   Clear
7:15 AM 35.6 °F 28.6 °F 30.2 °F 81% 30.17 in 10.0 mi SW 9.2 mph - N/A   Clear
7:35 AM 33.8 °F 26.4 °F 28.4 °F 81% 30.17 in 10.0 mi SSW 9.2 mph - N/A   Clear
7:55 AM 35.6 °F 28.6 °F 30.2 °F 81% 30.17 in 10.0 mi SSW 9.2 mph - N/A   Clear
8:15 AM 37.4 °F 32.1 °F 30.2 °F 75% 30.18 in 10.0 mi SSW 6.9 mph - N/A   Clear
8:35 AM 37.4 °F 31.4 °F 32.0 °F 81% 30.19 in 10.0 mi SSW 8.1 mph - N/A   Clear
8:55 AM 41.0 °F 35.8 °F 32.0 °F 70% 30.19 in 10.0 mi SSW 8.1 mph - N/A   Clear
9:15 AM 41.0 °F 35.8 °F 32.0 °F 70% 30.19 in 10.0 mi SSW 8.1 mph - N/A   Clear
9:35 AM 41.0 °F 35.2 °F 32.0 °F 70% 30.19 in 10.0 mi South 9.2 mph - N/A   Clear
9:55 AM 41.0 °F 34.3 °F 32.0 °F 70% 30.20 in 10.0 mi SSW 11.5 mph - N/A   Clear
10:15 AM 42.8 °F 37.5 °F 32.0 °F 66% 30.20 in 10.0 mi SSW 9.2 mph - N/A   Clear
10:35 AM 44.6 °F 39.2 °F 32.0 °F 61% 30.21 in 10.0 mi SSW 10.4 mph - N/A   Clear
10:55 AM 42.8 °F 36.6 °F 32.0 °F 66% 30.20 in 10.0 mi SSW 11.5 mph - N/A   Clear
11:15 AM 44.6 °F 38.8 °F 32.0 °F 61% 30.20 in 10.0 mi SSW 11.5 mph - N/A   Clear
11:35 AM 44.6 °F 39.2 °F 32.0 °F 61% 30.21 in 10.0 mi SSW 10.4 mph - N/A   Clear
11:55 AM 44.6 °F 38.8 °F 33.8 °F 66% 30.21 in 10.0 mi SSW 11.5 mph - N/A   Clear
12:15 PM 44.6 °F 39.7 °F 32.0 °F 61% 30.20 in 10.0 mi SSW 9.2 mph - N/A   Clear
12:35 PM 46.4 °F 41.9 °F 33.8 °F 62% 30.19 in 10.0 mi SW 9.2 mph - N/A   Clear
12:55 PM 46.4 °F 41.1 °F 33.8 °F 62% 30.18 in 10.0 mi SW 11.5 mph - N/A   Clear
1:15 PM 48.2 °F - 33.8 °F 58% 30.18 in 10.0 mi SW 11.5 mph - N/A   Clear
1:35 PM 46.4 °F 40.7 °F 33.8 °F 62% 30.18 in 10.0 mi SSW 12.7 mph - N/A   Clear
1:55 PM 48.2 °F - 33.8 °F 58% 30.17 in 10.0 mi SSW 12.7 mph - N/A   Clear
2:15 PM 46.4 °F 40.4 °F 33.8 °F 62% 30.17 in 10.0 mi SSW 13.8 mph - N/A   Clear
2:35 PM 46.4 °F 40.7 °F 33.8 °F 62% 30.16 in 10.0 mi SSW 12.7 mph - N/A   Clear
2:55 PM 46.4 °F 40.7 °F 33.8 °F 62% 30.16 in 10.0 mi SSW 12.7 mph - N/A   Clear
3:15 PM 46.4 °F 40.7 °F 33.8 °F 62% 30.16 in 10.0 mi SSW 12.7 mph - N/A   Clear
3:35 PM 50.0 °F - 33.8 °F 54% 30.15 in 10.0 mi SW 12.7 mph - N/A   Clear
3:55 PM 50.0 °F - 33.8 °F 54% 30.15 in 10.0 mi SW 12.7 mph - N/A   Clear
4:15 PM 50.0 °F - 33.8 °F 54% 30.15 in 10.0 mi SW 11.5 mph - N/A   Clear
4:35 PM 48.2 °F - 33.8 °F 58% 30.15 in 10.0 mi SW 10.4 mph - N/A   Clear
4:55 PM 50.0 °F - 33.8 °F 54% 30.15 in 10.0 mi SW 11.5 mph - N/A   Clear
5:15 PM 48.2 °F - 33.8 °F 58% 30.14 in 10.0 mi SW 13.8 mph - N/A   Clear
5:35 PM 46.4 °F 40.4 °F 33.8 °F 62% 30.14 in 10.0 mi SSW 13.8 mph 20.7 mph N/A   Clear
5:55 PM 46.4 °F 40.4 °F 33.8 °F 62% 30.14 in 10.0 mi SSW 13.8 mph - N/A   Clear
6:15 PM 46.4 °F 40.4 °F 33.8 °F 62% 30.14 in 10.0 mi SSW 13.8 mph - N/A   Clear
6:35 PM 44.6 °F 38.4 °F 33.8 °F 66% 30.14 in 10.0 mi SSW 12.7 mph - N/A   Clear
6:55 PM 42.8 °F 36.2 °F 33.8 °F 70% 30.13 in 10.0 mi SSW 12.7 mph - N/A   Clear
7:15 PM 44.6 °F 38.4 °F 33.8 °F 66% 30.13 in 10.0 mi SSW 12.7 mph - N/A   Clear
7:35 PM 44.6 °F 38.1 °F 33.8 °F 66% 30.13 in 10.0 mi SSW 13.8 mph - N/A   Clear
7:55 PM 44.6 °F 38.4 °F 33.8 °F 66% 30.13 in 10.0 mi SSW 12.7 mph - N/A   Clear
8:15 PM 46.4 °F 40.4 °F 33.8 °F 62% 30.13 in 10.0 mi SSW 13.8 mph - N/A   Clear
8:35 PM 44.6 °F 38.8 °F 33.8 °F 66% 30.13 in 10.0 mi SSW 11.5 mph - N/A   Clear
8:55 PM 42.8 °F 36.6 °F 33.8 °F 70% 30.13 in 10.0 mi SSW 11.5 mph - N/A   Clear
9:15 PM 44.6 °F 39.2 °F 33.8 °F 66% 30.13 in 10.0 mi SSW 10.4 mph - N/A   Clear
9:35 PM 42.8 °F 37.0 °F 33.8 °F 70% 30.13 in 10.0 mi SSW 10.4 mph - N/A   Clear
9:55 PM 41.0 °F 34.7 °F 32.0 °F 70% 30.12 in 10.0 mi SSW 10.4 mph - N/A   Clear
10:15 PM 41.0 °F 35.8 °F 32.0 °F 70% 30.12 in 10.0 mi SW 8.1 mph - N/A   Clear
10:35 PM 37.4 °F 31.4 °F 32.0 °F 81% 30.12 in 10.0 mi SSW 8.1 mph - N/A   Clear
10:55 PM 37.4 °F 30.8 °F 32.0 °F 81% 30.12 in 10.0 mi South 9.2 mph - N/A   Clear
11:15 PM 35.6 °F 29.2 °F 32.0 °F 87% 30.11 in 10.0 mi SW 8.1 mph - N/A   Clear
11:35 PM 37.4 °F 32.8 °F 32.0 °F 81% 30.10 in 10.0 mi SSW 5.8 mph - N/A   Clear
11:55 PM 37.4 °F 30.8 °F 32.0 °F 81% 30.10 in 10.0 mi SSW 9.2 mph - N/A   Clear